C/2013 C2 ( Tenagra )

Japanese version
Home page
Updated on August 15, 2020

---------------------------------------------------------------------

* Profile

Discovery Date February 14, 2013
Magnitude 19.0 mag
Discoverer P. R. Holvorcem, M. Schwartz (Tenagra Observatory)

* Pictures

* Orbital Elements

Epoch 2015 Sept. 15.0 TT = JDT 2457280.5
T 2015 Aug. 30.30210 TT                                 MPCW
q   9.1309449            (2000.0)            P               Q
n   0.01531403     Peri.  308.79115     -0.91034962     +0.24124870
a  16.0599113      Node   247.52493     -0.16367578     -0.95614863
e   0.4314449      Incl.   21.33907     -0.38009710     -0.16606885
P  64.36
From 436 observations 2013 Feb. 14-2019 May 8, mean residual 0".5.

* Magnitudes Graph

        m1 = 4.0 + 5 log d + 10.0 log r

---------------------------------------------------------------------

The orbital elements are published on M.P.E.C. 2019-J142.
The magnitudes graphs are made with Comet for Windows.

---------------------------------------------------------------------

Copyright(C) Seiichi Yoshida (comet@aerith.net). All rights reserved.